Location: Gokavaram
(16.9752°N, 81.0696°E)
Time: 10:42:07
(UTC+00:00)

SAR-Lupe-1 - Pass Details

Date: 15 May 2026
Orbit: 479 x 484 km, 98.1° (Epoch: 10 January)

Event Time Altitude Azimuth Distance (km) Brightness Sun altitude
Exits shadow 13:52:00 - 171° (S) 2,075 6.9 -12.4°
Reaches altitude 10° 13:53:01 10° 172° (S) 1,643 6.4 -12.6°
Maximum altitude 13:56:32 78° 258° (WSW) 491 4.1 -13.3°
Drops below altitude 10° 14:00:04 10° 345° (NNW) 1,644 7.3 -14.1°
Sets 14:02:07 0° 347° (NNW) 2,522 8.3 -14.6°
